Regional Weather Roundup
Issued by NWS Wakefield, VA

Home | Current Version | Previous Version | Text Only | Print | Product List | Glossary Off
Versions: 1 2 3 4 5 6 7 8 9 10 11 12 13 14 15 16 17 18 19 20 21 22 23 24 25 26 27 28 29 30 31 32 33 34 35 36 37 38 39 40 41 42 43 44 45 46 47 48 49 50

000
ASUS41 KAKQ 271610
RWRAKQ

REGIONAL WEATHER ROUNDUP
NATIONAL WEATHER SERVICE WAKEFIELD VA
1100 AM EST SAT DEC 27 2014

Note: "fair" indicates few or no clouds below 12,000 feet with no
significant weather and/or obstructions to visibility. * = Denotes
station may not report precipitation (e.g., rain,snow,etc.),
thunder or fog.

VAZ042-051-052>054-056-271700-
NORTHERN VIRGINIA

CITY           SKY/WX    TMP DP  RH WIND       PRES   REMARKS
WASH NATIONAL  MOSUNNY   46  36  68 CALM      30.31R
DULLES         MOSUNNY   47  35  63 CALM      30.29S
FORT BELVOIR   MOSUNNY   47  37  66 S2        30.31R
QUANTICO       MOSUNNY   43  36  76 E5        30.31S
FREDERICKSBRG* SUNNY     47  37  68 N3        30.28F
STAFFORD*      SUNNY     47  35  62 CALM      30.33F
WARRENTON      MOSUNNY   46  39  76 CALM      30.28F
CULPEPER*      SUNNY     46  36  66 CALM      30.29F
MANASSAS*      NOT AVBL
LEESBURG*      SUNNY     52  34  50 NE5       30.29F
WINCHESTER     SUNNY     50  28  43 CALM      30.28F
FRONT ROYAL*   MOSUNNY   46  32  57 CALM      30.28F
LURAY*         MOSUNNY   54  34  47 CALM      30.27F
$$

VAZ048-049-060>072-079>083-271700-
CENTRAL AND SOUTH CENTRAL VIRGINIA

CITY           SKY/WX    TMP DP  RH WIND       PRES   REMARKS
RICHMOND       MOSUNNY   54  38  54 S5        30.29F
CHESTERFIELD*  SUNNY     54  34  47 S3        30.30F
PETERSBURG*    SUNNY     53  38  57 S5        30.30F
HANOVER        SUNNY     52  38  58 S6        30.30F
TAPPAHANNOCK*  SUNNY     55  35  46 CALM      30.29F
QUINTON*       SUNNY     51  39  63 CALM      30.29F
CHARLOTTSVILLE MOSUNNY   51  31  46 CALM      30.26S
GORDONSVILLE*  MOSUNNY   48  35  60 CALM      30.27F
ORANGE*        MOSUNNY   50  36  57 CALM      30.29S
LOUISA*        MOSUNNY   52  37  58 SW3       30.26F
BUMPASS*       MOSUNNY   51  37  57 CALM      30.28S
FARMVILLE*     SUNNY     56  38  50 SW3       30.27F
CREWE*         SUNNY     53  37  52 S7        30.28F
FORT PICKETT*  SUNNY     53  39  59 SW8       30.29F
CHASE CITY*    SUNNY     54  41  61 CALM      30.29F
CLARKSVILLE*   SUNNY     54  37  54 CALM      30.29F
SOUTH HILL*    SUNNY     52  39  62 SW7       30.37S
LAWRENCEVILLE* SUNNY     51  40  67 SW5       30.31S
EMPORIA*       SUNNY     50  37  62 SE3       30.33F
$$

VAZ088>098-271700-
SOUTHEAST VIRGINIA

CITY           SKY/WX    TMP DP  RH WIND       PRES   REMARKS
NORFOLK        SUNNY     54  39  57 SW6       30.31F
VIRGINIA BEACH MOSUNNY   55  41  59 S5        30.30F
NORFOLK NAVAL  MOSUNNY   56  38  50 SW5       30.31F
WEST POINT*    SUNNY     55  39  54 CALM      30.31F
SALUDA*        FAIR      55  39  55 SW3       30.29F
NEWPORT NEWS   LGT RAIN  57  39  51 W6        30.30F
LANGLEY AFB    SUNNY     55  41  60 S5        30.30F
FORT EUSTIS    SUNNY     52  52  99 VRB1      30.29F
WILLIAMSBURG*  SUNNY     55  45  67 CALM      30.31F
HR EXEC AP*    SUNNY     54  41  62 S3        30.33F
FRANKLIN*      SUNNY     52  41  66 S3        30.32F
WAKEFIELD      SUNNY     53  40  61 CALM      30.31F
$$

VAZ020-022-025-037-045-271700-
WEST CENTRAL AND SOUTHWEST VIRGINIA

CITY           SKY/WX    TMP DP  RH WIND       PRES   REMARKS
STAUNTON*      MOSUNNY   48  32  54 CALM      30.29F
WAYNESBORO*    MOSUNNY   51  31  47 SE3       30.27F
HOT SPRINGS VA SUNNY     49  12  22 W12       30.24F
LYNCHBURG      SUNNY     50  33  52 S6        30.28F
DANVILLE       MOSUNNY   50  37  61 VRB3      30.30F
SOUTH BOSTON*  SUNNY     49  36  59 CALM      30.29F
MARTINSVILLE   SUNNY     55  37  49 CALM      30.32R
ROANOKE        MOSUNNY   53  29  39 N3        30.31F
BLACKSBURG     SUNNY     49  31  49 S3        30.32F
DUBLIN*        SUNNY     53  29  39 W3        30.31S
MARION*        SUNNY     55  22  27 SW6       30.31F
HILLSVILLE*    SUNNY     54  21  27 CALM      30.29F
RICHLANDS*     MOSUNNY   49  24  37 CALM      30.29F
WISE*          MOSUNNY   52  27  37 SW6       30.30F
ABINGDON*      MOSUNNY   55  28  35 CALM      30.30F
$$

MDZ021>025-VAZ099-100-271700-
SOUTHERN MARYLAND AND THE DELMARVA PENINSULA

CITY           SKY/WX    TMP DP  RH WIND       PRES   REMARKS
PATUXENT RIVER MOSUNNY   50  38  63 E3        30.29S
BAY BRIDGE APT   N/A     43  37  81 CALM      30.30S
LEONARDTOWN    MOSUNNY   50  36  57 CALM      30.30S
DOVER          PTSUNNY   48  39  72 N1        30.27
GEORGETOWN     SUNNY     52  39  61 S3        30.29F
EASTON         PTSUNNY   50  41  71 CALM      30.33
CAMBRIDGE      MOSUNNY   52  43  71 SW3       30.29S
SALISBURY      SUNNY     54  40  59 W3        30.29F
OCEAN CITY     SUNNY     50  41  71 MISG      30.29F
WALLOPS ISLAND SUNNY     54  43  66 CALM      30.30F
ACCOMACK*      SUNNY     55  37  50 SW6       30.29F
$$

NCZ012>017-030>032-271700-
NORTH CENTRAL AND EASTERN NORTH CAROLINA

CITY           SKY/WX    TMP DP  RH WIND       PRES   REMARKS
ROANOKE RAPIDS SUNNY     50  39  66 SW3       30.33S
RALEIGH        MOSUNNY   53  39  59 SW6       30.33F
ELIZABETH CITY SUNNY     57  41  55 S5        30.33F
AHOSKIE*       SUNNY     53  40  62 S3        30.33F
EDENTON*       SUNNY     53  38  58 W5        30.34F
CURRITUCK*     SUNNY     53  39  59 S3        30.33F
KILL DEVIL HLS SUNNY     53  40  62 W3        30.32F
MANTEO         SUNNY     52  43  71 W3        30.34F
CAPE HATTERAS  SUNNY     57  41  55 CALM      30.34F
TARBORO*       SUNNY     55  41  59 S3        30.35F
GOLDSBORO      SUNNY     55  46  72 CALM      30.33F
WASHINGTON     SUNNY     52  39  60 CALM      30.35F
GREENVILLE     SUNNY     55  37  50 CALM      30.34F
NEW BERN       SUNNY     58  41  53 W3        30.37S
WILMINGTON     SUNNY     58  42  55 CALM      30.36F
$$

VAZ048-271700-
ELSEWHERE

CITY           SKY/WX    TMP DP  RH WIND       PRES   REMARKS
HARRISBURG PA  PTSUNNY   42  33  70 W3        30.27F
BALTIMORE      MOSUNNY   51  34  52 CALM      30.28F
ANNAPOLIS      MOSUNNY   42  36  79 SE3       30.30S
ANDREWS AFB    MOSUNNY   47  37  69 NW3       30.28S
PHILADELPHIA   MOSUNNY   46  35  65 SW5       30.29F
HENDERSON NC   SUNNY     53  38  56 SW6       30.31F
GREENSBORO     MOSUNNY   54  37  52 SW9       30.30S
ROCKY MOUNT    SUNNY     54  40  59 S5        30.34F
$$

VAZ100-271700-
MARINE

STATION/POSITION TIME  TEMP    WIND        PRES    WAVE   SWELL
                       AIR SEA DIR/SP/G            HT/PER HT/PER
                 (UTC) (F)     (DEG/KT/KT) (MB)    (FT/S) (FT/S)
CAPE MAY NJ      1600   49 46  240/  2/  2 1025.0F
LEWES DE         1600   44 44   70/  4/  4 1025.3F
15NM E FENWICK I 1600   47 45              1025.4F   2/16
OCEAN-CITY-INLET 1600   46 45  200/  5/  7 1025.4F
WACHAPREAGUE VA  1600   57 46  230/  2/  4 1025.8F
THOMAS POINT MD  1600   42 43   CALM  /  1 1027.1R
GOOSES REEF MD   1600   44     VRB  2/  2  1025.0F   1
COVE POINT MD    1600   43     100/  2/  2 1025.8S
SOLOMONS ISLAND  1600      43                N/A
BISHOPS HEAD MD  1600   47 43  270/  3/  4 1025.5R
PINEY POINT MD   1600           10/  3/  3   N/A
POTOMAC MD       1600   45 43   CALM  /  2 1025.1F   0
CAMBRIDGE MD     1600   45 42   30/  1/  2 1025.6S
LEWISETTA VA     1600   46 44     CALM     1025.3F
RAPPAHANNOCK LGT 1600          200/  8/  9 1026.3F
STINGRAY PT      1600   47 45  170/  2/  4 1026.3F   0
YORK RVR RNG VA  1600   47     210/  5/  5 1025.5S
YORKTOWN VA      1600   49 46   30/  3/  3 1025.9S
JAMESTOWN VA     1600   49 46  150/  2/  2   N/A     0
DOMINION TERM VA 1600   45     150/  2/  3 1026.3F
KIPTOPEKE VA     1600      50  180/  4/  5   N/A
CHES BAY BRIDGE  1600   50 46  190/  4/  5 1025.8F
CAPE HENRY VA    1600   56      CALM  /  1 1025.0F
CHESAPEAKE LGHT  1500   47     210/  7/  7 1027.4F
WILLOUBY STN VA  1600   51     200/  4/  4 1026.6F
S CRANEY ISL VA  1600          160/  5/  5 1026.2F
CAPE HENRY BUOY  1500      48                N/A     2/15   2/15
1ST LANDING BUOY 1600   49 45  200/  2/  4 1025.7F   1/ 5
CAPE CHARLES BUO 1600      48                N/A     2/17   2/17
64NM E OF VA BCH 1600   52 52  230/  6/  6 1026.3F   2/16   2/16
DUCK PIER NC     1600   51 49  220/  5/  8 1026.1F
44100 DUCK FRF   1600      50                N/A     2/17   2/17
44056 DUCK FRF   1600      50                N/A     2/15   2/15
OREGON INLET NC  1600   51 53  230/  4/  5 1027.4F
HATTERAS NC      1600   51 54  360/  4/  4 1027.8F
DIAMOND SHLS NC  1600   59                 1027.6F   3/16
CAPE LOOKOUT NC  1500   55      30/  4/  5 1028.0R
$$



USA.gov is the U.S. government's official web portal to all federal, state and local government web resources and services.